User: anonymous   Login
Location: Canon Road
(40.7761°N, 111.8849°W)
Time: 12:42:33
(UTC+00:00)
Language:

LightSail 2 - Orbit

View from above orbital plane
View from above orbital plane
View from above satellite
View from above satellite

Ground track
Ground track

The orbit data is extracted from the following two-line orbital elements,

1 44420U 19036AC  20153.55386700 +.00004604 +00000-0 +98596-3 0  9992
2 44420 024.0096 208.2804 0018309 344.1471 015.8441 14.55560521048005
Epoch (UTC): 01 June 2020 13:17:34
Eccentricity: 0.0018309
inclination: 24.0096°
perigee height: 694 km
apogee height: 720 km
right ascension of ascending node: 208.2804°
argument of perigee: 344.1471°
revolutions per day: 14.55560521
mean anomaly at epoch: 15.8441°
orbit number at epoch: 4800

The dashed part of the orbit path shows where the satellite is in the earth's shadow,  

DLR